Helena, Arkansas, United States (72342)
Lat: 34.53N, Lon: 90.59W
Wx Zone: ARZ058
Local Info
Past Weather Observations for Tuesday, August 26, 2014

NOTE: This archive is for the closest National Weather Service station to Helena. Information may differ from the station used for current weather conditions.

Click here for Long-term Archive

Time Weather Temperature Dewpoint Humidity Pressure Winds Precip Visibility
23:55
Clear
73°F / 23°C 70°F / 21°C 89% 30.06 in
(1018 mb)
Calm - 10SM
23:35
Clear
73°F / 23°C 70°F / 21°C 89% 30.06 in
(1018 mb)
Calm - 10SM
23:15
Clear
73°F / 23°C 70°F / 21°C 89% 30.06 in
(1018 mb)
Calm - 10SM
22:55
Clear
73°F / 23°C 70°F / 21°C 89% 30.06 in
(1018 mb)
Calm - 10SM
22:35
Clear
73°F / 23°C 70°F / 21°C 89% 30.06 in
(1018 mb)
SE 3.5 mph
(SE 6 kph)
- 10SM
22:15
Clear
73°F / 23°C 72°F / 22°C 94% 30.06 in
(1018 mb)
E 3.5 mph
(E 6 kph)
- 10SM
21:55
Clear
73°F / 23°C 72°F / 22°C 94% 30.06 in
(1018 mb)
Calm - 10SM
21:35
Clear
75°F / 24°C 70°F / 21°C 83% 30.06 in
(1018 mb)
Calm - 10SM
21:15
Clear
77°F / 25°C 72°F / 22°C 83% 30.06 in
(1018 mb)
Calm - 10SM
20:55
Clear
77°F / 25°C 72°F / 22°C 83% 30.06 in
(1018 mb)
Calm - 10SM
20:35
Clear
77°F / 25°C 72°F / 22°C 83% 30.06 in
(1018 mb)
Calm - 10SM
20:15
Clear
77°F / 25°C 72°F / 22°C 83% 30.06 in
(1018 mb)
Calm - 10SM
19:55
Clear
79°F / 26°C 72°F / 22°C 79% 30.06 in
(1018 mb)
Calm - 10SM
19:35
Clear
79°F / 26°C 72°F / 22°C 79% 30.04 in
(1017 mb)
Calm - 10SM
19:15
Clear
79°F / 26°C 72°F / 22°C 79% 30.04 in
(1017 mb)
SSE 3.5 mph
(SSE 6 kph)
- 10SM
18:55
Clear
81°F / 27°C 72°F / 22°C 74% 30.04 in
(1017 mb)
SE 5.8 mph
(SE 9 kph)
- 10SM
18:35
Clear
82°F / 28°C 72°F / 22°C 70% 30.04 in
(1017 mb)
Calm - 10SM
18:15
Clear
86°F / 30°C 72°F / 22°C 62% 30.04 in
(1017 mb)
E 3.5 mph
(E 6 kph)
- 10SM
17:55
Clear
Drizzle
86°F / 30°C 72°F / 22°C 62% 30.04 in
(1017 mb)
E 3.5 mph
(E 6 kph)
- 10SM
17:35
Clear
88°F / 31°C 70°F / 21°C 55% 30.04 in
(1017 mb)
E 4.6 mph
(E 7 kph)
-
17:15
Clear
88°F / 31°C 70°F / 21°C 55% 30.04 in
(1017 mb)
E 4.6 mph
(E 7 kph)
- 10SM
16:55
Clear
90°F / 32°C 70°F / 21°C 52% 30.04 in
(1017 mb)
NE 4.6 mph
(NE 7 kph)
-
16:35
Clear
90°F / 32°C 68°F / 20°C 49% 30.04 in
(1017 mb)
ENE 5.8 mph
(ENE 9 kph)
- 10SM
16:15
Clear
90°F / 32°C 68°F / 20°C 49% 30.04 in
(1017 mb)
ENE 5.8 mph
(ENE 9 kph)
- 10SM
15:55
Clear
90°F / 32°C 70°F / 21°C 52% 30.04 in
(1017 mb)
ENE 4.6 mph
(ENE 7 kph)
- 10SM
15:35
Clear
90°F / 32°C 68°F / 20°C 49% 30.04 in
(1017 mb)
E 5.8 mph
(E 9 kph)
- 10SM
15:15
Clear
90°F / 32°C 68°F / 20°C 49% 30.04 in
(1017 mb)
NNE 4.6 mph
(NNE 7 kph)
- 10SM
14:55
Clear
90°F / 32°C 68°F / 20°C 49% 30.04 in
(1017 mb)
NE 5.8 mph
(NE 9 kph)
- 10SM
14:35
Clear
90°F / 32°C 68°F / 20°C 49% 30.06 in
(1018 mb)
E 5.8 mph
(E 9 kph)
- 10SM
14:15
Clear
90°F / 32°C 68°F / 20°C 49% 30.06 in
(1018 mb)
ENE 6.9 mph
(ENE 11 kph)
- 10SM
13:55
Clear
90°F / 32°C 70°F / 21°C 52% 30.06 in
(1018 mb)
ENE 5.8 mph
(ENE 9 kph)
- 10SM
13:35
Clear
90°F / 32°C 68°F / 20°C 49% 30.06 in
(1018 mb)
Calm - 10SM
13:15
Partly Cloudy
90°F / 32°C 68°F / 20°C 49% 30.09 in
(1019 mb)
SE 5.8 mph
(SE 9 kph)
- 10SM
12:55
Partly Cloudy
88°F / 31°C 68°F / 20°C 52% 30.09 in
(1019 mb)
E 3.5 mph
(E 6 kph)
- 10SM
12:35
Partly Cloudy
88°F / 31°C 68°F / 20°C 52% 30.09 in
(1019 mb)
ESE 5.8 mph
(ESE 9 kph)
- 10SM
12:15
Partly Cloudy
88°F / 31°C 68°F / 20°C 52% 30.09 in
(1019 mb)
Calm - 10SM
11:55
Overcast
86°F / 30°C 68°F / 20°C 55% 30.12 in
(1020 mb)
ESE 3.5 mph
(ESE 6 kph)
- 10SM
11:35
Mostly Cloudy
86°F / 30°C 68°F / 20°C 55% 30.12 in
(1020 mb)
ESE 4.6 mph
(ESE 7 kph)
- 10SM
11:15
Partly Cloudy
88°F / 31°C 66°F / 19°C 49% 30.12 in
(1020 mb)
SSE 3.5 mph
(SSE 6 kph)
- 10SM
10:55
Partly Cloudy
88°F / 31°C 68°F / 20°C 52% 30.12 in
(1020 mb)
S 3.5 mph
(S 6 kph)
- 10SM
10:35
Partly Cloudy
88°F / 31°C 68°F / 20°C 52% 30.12 in
(1020 mb)
S 4.6 mph
(S 7 kph)
- 10SM
10:15
Clear
88°F / 31°C 68°F / 20°C 52% 30.12 in
(1020 mb)
SSE 6.9 mph
(SSE 11 kph)
-
09:55
Clear
86°F / 30°C 68°F / 20°C 55% 30.12 in
(1020 mb)
S 5.8 mph
(S 9 kph)
- 10SM
09:35
Clear
86°F / 30°C 70°F / 21°C 59% 30.12 in
(1020 mb)
SSE 4.6 mph
(SSE 7 kph)
- 7SM
09:15
Clear
84°F / 29°C 70°F / 21°C 62% 30.12 in
(1020 mb)
SE 5.8 mph
(SE 9 kph)
- 10SM
08:55
Clear
82°F / 28°C 70°F / 21°C 66% 30.12 in
(1020 mb)
S 6.9 mph
(S 11 kph)
- 10SM
08:35
Clear
82°F / 28°C 70°F / 21°C 66% 30.12 in
(1020 mb)
SSE 5.8 mph
(SSE 9 kph)
- 10SM
08:15
Clear
81°F / 27°C 70°F / 21°C 70% 30.12 in
(1020 mb)
S 4.6 mph
(S 7 kph)
- 10SM
07:55
Clear
79°F / 26°C 70°F / 21°C 74% 30.12 in
(1020 mb)
SSE 5.8 mph
(SSE 9 kph)
- 10SM
07:35
Clear
79°F / 26°C 72°F / 22°C 79% 30.12 in
(1020 mb)
SE 5.8 mph
(SE 9 kph)
- 10SM
07:15
Clear
79°F / 26°C 72°F / 22°C 79% 30.12 in
(1020 mb)
SE 4.6 mph
(SE 7 kph)
- 10SM
06:55
Partly Cloudy
77°F / 25°C 72°F / 22°C 83% 30.09 in
(1019 mb)
SE 3.5 mph
(SE 6 kph)
- 10SM
06:35
Clear
75°F / 24°C 73°F / 23°C 94% 30.09 in
(1019 mb)
Calm - 7SM
06:15
Clear
Fog And Mist
72°F / 22°C 72°F / 22°C 100% 30.09 in
(1019 mb)
Calm - 5SM
05:55
Clear
Fog And Mist
72°F / 22°C 72°F / 22°C 100% 30.09 in
(1019 mb)
Calm - 3SM
05:35
Clear
Fog And Mist
72°F / 22°C 72°F / 22°C 100% 30.06 in
(1018 mb)
Calm - 2SM
05:15
Clear
Fog And Mist
72°F / 22°C 72°F / 22°C 100% 30.06 in
(1018 mb)
Calm - 2 1/2SM
04:55
Clear
Fog And Mist
72°F / 22°C 70°F / 21°C 94% 30.06 in
(1018 mb)
Calm - 3SM
04:35
Clear
Fog And Mist
73°F / 23°C 72°F / 22°C 94% 30.06 in
(1018 mb)
Calm - 3SM
04:15
Clear
Fog And Mist
73°F / 23°C 72°F / 22°C 94% 30.06 in
(1018 mb)
Calm - 5SM
03:55
Clear
Fog And Mist
73°F / 23°C 72°F / 22°C 94% 30.06 in
(1018 mb)
Calm - 3SM
03:35
Clear
Fog And Mist
73°F / 23°C 73°F / 23°C 100% 30.04 in
(1017 mb)
Calm - 3SM
03:15
Clear
Fog And Mist
73°F / 23°C 72°F / 22°C 94% 30.04 in
(1017 mb)
Calm - 5SM
02:55
Clear
Fog And Mist
73°F / 23°C 72°F / 22°C 94% 30.04 in
(1017 mb)
Calm - 5SM
02:35
Clear
Fog And Mist
73°F / 23°C 72°F / 22°C 94% 30.04 in
(1017 mb)
Calm - 5SM
02:15
Clear
75°F / 24°C 72°F / 22°C 89% 30.01 in
(1016 mb)
Calm - 7SM
01:55
Clear
75°F / 24°C 73°F / 23°C 94% 30.04 in
(1017 mb)
Calm - 7SM
01:35
Clear
75°F / 24°C 73°F / 23°C 94% 30.04 in
(1017 mb)
Calm - 7SM
01:15
Clear
75°F / 24°C 72°F / 22°C 89% 30.04 in
(1017 mb)
Calm - 7SM
00:55
Clear
75°F / 24°C 72°F / 22°C 89% 30.04 in
(1017 mb)
Calm - 7SM
00:35
Clear
75°F / 24°C 73°F / 23°C 94% 30.04 in
(1017 mb)
N 4.6 mph
(N 7 kph)
- 7SM
00:15
Clear
75°F / 24°C 72°F / 22°C 89% 30.04 in
(1017 mb)
Calm - 7SM
Time Weather Temperature Dewpoint Humidity Pressure Winds Precip Visibility


Weather for websites

WeatherForYou.com, LLC is not responsible for any damages or problems caused by this service. Current weather conditions are obtained from the closest station including government and personal stations which may have varying degrees of accuracy. Weather forecasts are derived from the NOAA NDFD. Like all things, this site belongs to Jesus Christ... He just trusts me to maintain it. If you have any questions or comments email webmaster@weatherforyou.com

Copyright © 2014, WeatherForYou.com LLC. All rights reserved.